Temp
46 46 46 46 46 45 45 43 43 43 43 43 42 43 42 44 45 45 46 46 46 47 47 48 49 50 50 51 53 54 57 61 61 62 62 61 61 62 61 61 61 61
44 45 45 46 45 46 47 46 45 44 43 43 43 42 43 44 45 45 45 45 47 47 48 47 48 48 48 49 50 51 53 55 57 61 61 61 61 61 61 61 61 62
43 43 44 43 44 45 46 46 46 46 46 46 46 45 45 45 45 44 45 46 46 47 47 47 48 47 47 47 48 49 50 51 53 55 57 60 61 61 61 61 61 61
42 43 43 43 43 43 45 44 45 45 46 45 45 46 46 46 46 46 47 47 47 47 48 48 48 48 48 47 47 47 48 49 51 52 53 54 58 60 60 61 60 60
41 41 42 42 43 43 44 43 43 44 44 44 45 45 45 45 45 45 45 46 46 46 46 47 47 47 48 47 47 46 47 47 48 50 51 52 54 56 59 60 60 60
41 41 41 41 42 42 42 42 42 43 43 43 43 44 44 44 44 43 44 44 45 45 45 46 46 46 47 47 47 47 46 46 47 49 49 50 51 53 55 57 59 59
39 40 40 41 41 41 41 41 42 42 42 43 43 43 43 43 42 43 43 43 43 44 44 44 44 45 46 46 46 46 47 46 47 48 48 46 46 48 51 52 53 57
38 38 39 40 40 40 40 40 40 41 41 41 41 42 42 42 42 42 42 43 42 43 43 43 44 44 45 45 45 45 45 46 46 47 46 46 45 46 47 48 49 50
36 36 37 38 38 39 39 39 40 40 41 40 40 40 41 41 41 41 41 42 41 42 42 42 43 43 44 44 44 44 44 45 46 46 45 45 44 45 45 47 47 47
34 35 35 36 36 38 38 39 39 39 40 39 39 40 40 40 40 40 40 40 40 40 41 41 41 42 42 43 43 43 44 44 44 44 45 45 45 45 45 45 46 46
32 32 33 34 35 36 36 37 38 39 39 39 39 38 39 39 39 40 39 39 38 39 39 40 40 41 41 41 42 43 43 42 43 43 44 44 45 45 45 45 45 45
31 30 31 32 33 34 35 35 37 37 37 38 38 37 38 38 38 38 38 38 38 38 39 39 40 40 40 41 41 42 42 41 42 42 43 43 44 44 44 45 45 45
31 31 31 31 31 32 33 33 34 34 35 36 37 36 36 37 37 37 37 37 37 38 37 38 38 39 39 40 40 41 40 40 40 41 41 42 42 43 43 44 45 45
31 30 29 31 31 30 31 31 33 33 34 34 33 34 36 36 36 36 36 36 36 37 37 37 37 38 38 39 40 39 39 39 40 40 40 40 41 42 42 43 44 44
30 30 30 30 30 30 31 31 31 31 31 32 31 33 35 35 35 35 34 34 35 35 35 36 36 36 38 38 38 38 39 39 39 39 39 39 39 40 41 42 43 44
30 29 30 29 30 31 30 30 30 30 30 30 31 32 32 33 33 33 33 33 33 33 34 34 35 37 37 38 39 38 38 38 38 38 38 38 38 38 39 40 41 42
29 30 29 29 30 30 30 30 30 30 30 30 30 31 32 32 32 32 32 33 33 33 32 33 34 35 37 38 39 39 38 37 37 37 38 38 37 37 37 38 39 40
30 29 29 30 29 30 30 30 29 29 29 30 31 31 32 31 31 31 32 32 32 32 32 32 33 35 37 37 38 38 38 37 37 36 36 37 37 37 36 36 37 38
29 29 29 29 30 30 30 29 29 29 29 30 31 31 30 30 31 31 31 31 31 31 31 32 32 35 37 37 37 38 38 37 36 36 36 36 36 36 36 36 36 36
29 29 29 29 30 29 29 29 28 29 30 30 30 30 30 30 31 30 31 30 30 30 30 31 31 34 36 37 37 37 38 37 35 35 35 35 34 35 36 36 36 36
29 29 29 29 29 29 28 28 28 29 29 29 30 30 30 30 30 30 30 30 30 30 30 30 31 34 36 36 36 37 37 37 35 34 34 34 34 34 35 35 36 36
29 29 29 29 29 29 28 28 28 29 29 30 29 30 30 30 30 30 29 29 30 30 29 29 31 34 35 35 36 36 37 35 33 33 32 32 33 33 34 35 36 36
29 29 29 29 29 28 28 28 29 29 30 30 29 30 30 29 30 30 30 29 29 29 28 29 29 32 34 34 35 36 35 33 32 32 31 31 32 33 33 34 35 35
29 28 28 28 27 27 28 28 29 29 30 30 29 29 29 29 29 29 29 29 28 28 29 28 29 31 33 34 34 35 34 32 31 31 31 31 31 32 33 34 34 35
28 27 27 27 27 27 28 28 29 29 29 29 29 28 28 29 28 28 28 28 28 28 28 27 28 29 32 33 33 34 33 31 31 30 29 30 31 31 32 33 33 34
26 26 26 26 27 28 28 29 29 28 28 28 28 28 27 27 27 27 26 26 27 27 27 27 26 27 28 31 32 33 33 32 31 29 28 29 30 30 30 32 33 33
MSLP
1025.46 1025.26 1025.10 1024.94 1024.82 1024.74 1024.58 1024.46 1024.34 1024.26 1024.22 1024.06 1023.94 1023.70 1023.42 1023.30 1023.10 1022.90 1022.54 1021.98 1021.46 1021.06 1020.78 1020.38 1019.86 1019.30 1018.82 1018.34 1017.78 1017.18 1016.42 1015.50 1014.94 1014.62 1014.46 1014.34 1014.30 1014.22 1014.26 1014.30 1014.30 1014.34
1025.94 1025.78 1025.58 1025.42 1025.22 1025.06 1024.90 1024.74 1024.62 1024.50 1024.42 1024.26 1024.10 1023.90 1023.66 1023.38 1023.18 1022.98 1022.62 1022.26 1021.82 1021.34 1020.82 1020.42 1020.06 1019.70 1019.22 1018.62 1018.14 1017.62 1016.86 1016.18 1015.70 1014.98 1014.54 1014.26 1014.10 1014.06 1014.06 1013.90 1013.94 1013.78
1026.30 1026.10 1025.94 1025.82 1025.70 1025.54 1025.30 1025.14 1024.94 1024.70 1024.50 1024.34 1024.10 1023.86 1023.62 1023.42 1023.14 1022.94 1022.66 1022.26 1021.86 1021.54 1021.14 1020.70 1020.26 1019.86 1019.50 1019.10 1018.62 1018.10 1017.50 1016.94 1016.42 1015.98 1015.46 1014.78 1014.22 1013.94 1013.74 1013.62 1013.58 1013.50
1026.66 1026.50 1026.34 1026.22 1026.06 1025.90 1025.66 1025.50 1025.30 1025.06 1024.82 1024.50 1024.30 1024.14 1023.86 1023.62 1023.30 1022.86 1022.46 1022.06 1021.74 1021.46 1021.18 1020.90 1020.58 1020.10 1019.66 1019.26 1018.86 1018.58 1018.22 1017.86 1017.54 1017.06 1016.50 1015.74 1014.94 1014.30 1013.82 1013.50 1013.38 1013.18
1026.94 1026.78 1026.62 1026.50 1026.30 1026.14 1025.94 1025.78 1025.62 1025.42 1025.18 1025.02 1024.70 1024.38 1024.06 1023.70 1023.38 1023.02 1022.66 1022.34 1022.02 1021.58 1021.14 1020.82 1020.50 1020.18 1019.82 1019.46 1019.18 1018.86 1018.46 1018.10 1017.62 1017.18 1016.82 1016.26 1015.62 1015.10 1014.26 1013.66 1013.22 1012.98
1027.14 1026.98 1026.82 1026.66 1026.50 1026.30 1026.14 1026.02 1025.82 1025.62 1025.38 1025.14 1024.94 1024.70 1024.42 1024.14 1023.82 1023.50 1023.14 1022.70 1022.34 1021.98 1021.50 1021.02 1020.66 1020.38 1020.06 1019.70 1019.34 1019.06 1018.74 1018.34 1017.90 1017.42 1016.98 1016.62 1015.98 1015.50 1015.14 1014.34 1013.46 1012.82
1027.30 1027.06 1026.90 1026.74 1026.58 1026.42 1026.30 1026.14 1025.98 1025.78 1025.58 1025.42 1025.18 1024.90 1024.66 1024.42 1024.10 1023.74 1023.38 1023.06 1022.70 1022.30 1021.98 1021.50 1021.06 1020.62 1020.22 1019.90 1019.54 1019.18 1018.86 1018.54 1018.14 1017.74 1017.46 1017.26 1016.86 1016.14 1015.62 1015.26 1014.78 1013.82
1027.42 1027.22 1027.02 1026.86 1026.66 1026.42 1026.26 1026.14 1025.98 1025.78 1025.58 1025.42 1025.26 1025.02 1024.86 1024.66 1024.38 1024.10 1023.78 1023.42 1023.06 1022.66 1022.34 1022.02 1021.62 1021.18 1020.70 1020.30 1019.94 1019.54 1019.14 1018.78 1018.46 1018.14 1017.82 1017.46 1017.10 1016.66 1016.22 1015.90 1015.50 1015.06
1027.50 1027.30 1027.10 1026.90 1026.74 1026.50 1026.34 1026.18 1025.98 1025.78 1025.58 1025.46 1025.26 1025.06 1024.90 1024.78 1024.58 1024.34 1024.06 1023.78 1023.50 1023.14 1022.78 1022.42 1022.06 1021.70 1021.26 1020.82 1020.42 1020.06 1019.58 1019.14 1018.90 1018.70 1018.38 1017.90 1017.42 1017.02 1016.74 1016.34 1015.82 1015.30
1027.50 1027.34 1027.18 1027.02 1026.82 1026.62 1026.42 1026.22 1026.06 1025.86 1025.62 1025.46 1025.26 1025.14 1024.94 1024.74 1024.62 1024.42 1024.18 1023.98 1023.70 1023.38 1023.10 1022.74 1022.38 1022.02 1021.62 1021.22 1020.86 1020.42 1019.94 1019.54 1019.18 1018.94 1018.70 1018.34 1017.90 1017.46 1016.98 1016.62 1016.30 1015.74
1027.50 1027.34 1027.18 1027.02 1026.90 1026.70 1026.54 1026.34 1026.10 1025.90 1025.70 1025.54 1025.30 1025.14 1024.98 1024.74 1024.58 1024.42 1024.26 1024.06 1023.86 1023.58 1023.22 1022.94 1022.66 1022.26 1021.86 1021.42 1021.02 1020.62 1020.30 1019.94 1019.58 1019.10 1018.70 1018.42 1018.14 1017.78 1017.34 1016.98 1016.46 1016.10
1027.34 1027.26 1027.14 1027.02 1026.82 1026.66 1026.50 1026.38 1026.18 1025.98 1025.78 1025.58 1025.42 1025.22 1024.98 1024.82 1024.66 1024.46 1024.34 1024.18 1023.98 1023.74 1023.46 1023.18 1022.78 1022.46 1022.10 1021.66 1021.18 1020.78 1020.42 1020.14 1019.74 1019.34 1018.86 1018.46 1018.10 1017.82 1017.54 1017.14 1016.70 1016.18
1027.10 1027.02 1026.98 1026.90 1026.70 1026.58 1026.42 1026.26 1026.06 1025.94 1025.78 1025.58 1025.42 1025.30 1025.06 1024.82 1024.58 1024.46 1024.34 1024.18 1024.02 1023.78 1023.54 1023.26 1022.90 1022.54 1022.22 1021.78 1021.34 1020.94 1020.58 1020.18 1019.78 1019.34 1018.90 1018.50 1018.06 1017.82 1017.50 1017.14 1016.78 1016.26
1026.94 1026.90 1026.82 1026.66 1026.54 1026.42 1026.26 1026.10 1025.94 1025.78 1025.62 1025.50 1025.38 1025.22 1024.98 1024.82 1024.66 1024.42 1024.22 1024.14 1023.94 1023.74 1023.54 1023.26 1022.98 1022.66 1022.26 1021.86 1021.54 1021.22 1020.74 1020.22 1019.78 1019.38 1018.94 1018.46 1018.06 1017.66 1017.30 1016.94 1016.58 1016.22
1026.86 1026.74 1026.62 1026.50 1026.38 1026.22 1026.02 1025.90 1025.74 1025.62 1025.46 1025.34 1025.22 1025.06 1024.86 1024.70 1024.58 1024.42 1024.18 1023.90 1023.74 1023.62 1023.38 1023.14 1022.94 1022.62 1022.26 1021.98 1021.62 1021.18 1020.86 1020.34 1019.82 1019.38 1018.98 1018.50 1017.94 1017.42 1017.06 1016.74 1016.38 1015.98
1026.66 1026.62 1026.46 1026.34 1026.18 1025.98 1025.86 1025.74 1025.62 1025.46 1025.30 1025.14 1024.98 1024.82 1024.66 1024.46 1024.34 1024.22 1024.14 1023.94 1023.62 1023.34 1023.18 1023.02 1022.74 1022.42 1022.10 1021.90 1021.70 1021.30 1020.82 1020.38 1019.90 1019.42 1018.94 1018.46 1017.98 1017.38 1016.82 1016.42 1016.10 1015.78
1026.42 1026.22 1026.14 1026.02 1025.82 1025.74 1025.54 1025.38 1025.26 1025.18 1025.10 1024.94 1024.78 1024.62 1024.42 1024.22 1024.10 1023.90 1023.78 1023.66 1023.46 1023.26 1022.98 1022.70 1022.46 1022.18 1021.82 1021.54 1021.30 1021.02 1020.74 1020.30 1019.86 1019.26 1018.82 1018.26 1017.82 1017.42 1016.82 1016.30 1015.74 1015.34
1026.06 1025.94 1025.90 1025.70 1025.58 1025.38 1025.18 1025.06 1024.94 1024.82 1024.66 1024.50 1024.38 1024.22 1024.02 1023.98 1023.82 1023.66 1023.46 1023.26 1023.10 1022.94 1022.78 1022.50 1022.14 1021.74 1021.54 1021.26 1020.90 1020.62 1020.42 1020.10 1019.66 1019.14 1018.58 1018.06 1017.58 1017.14 1016.70 1016.22 1015.70 1015.14
1025.70 1025.66 1025.58 1025.46 1025.26 1025.06 1024.90 1024.78 1024.66 1024.54 1024.34 1024.14 1023.90 1023.74 1023.70 1023.62 1023.42 1023.26 1023.10 1022.90 1022.78 1022.54 1022.30 1022.06 1021.78 1021.46 1021.10 1020.86 1020.58 1020.22 1019.94 1019.74 1019.30 1018.90 1018.38 1017.78 1017.34 1016.90 1016.42 1015.98 1015.54 1015.02
1025.34 1025.30 1025.22 1025.06 1024.86 1024.74 1024.62 1024.50 1024.38 1024.14 1023.90 1023.82 1023.66 1023.50 1023.38 1023.18 1022.98 1022.86 1022.66 1022.50 1022.38 1022.18 1021.86 1021.50 1021.26 1021.02 1020.70 1020.42 1020.06 1019.74 1019.46 1019.22 1018.82 1018.38 1017.94 1017.50 1017.02 1016.54 1016.06 1015.58 1015.18 1014.86
1024.94 1024.86 1024.78 1024.62 1024.50 1024.42 1024.30 1024.22 1024.06 1023.86 1023.70 1023.54 1023.38 1023.22 1023.02 1022.82 1022.62 1022.46 1022.22 1022.06 1021.90 1021.70 1021.46 1021.06 1020.70 1020.38 1020.18 1019.94 1019.62 1019.26 1018.86 1018.62 1018.26 1017.86 1017.38 1016.94 1016.50 1016.06 1015.62 1015.14 1014.74 1014.38
1024.50 1024.42 1024.34 1024.22 1024.10 1024.02 1024.02 1023.86 1023.70 1023.58 1023.38 1023.18 1023.06 1022.90 1022.66 1022.50 1022.22 1022.14 1021.86 1021.62 1021.42 1021.26 1021.02 1020.54 1020.10 1019.86 1019.62 1019.38 1019.10 1018.74 1018.46 1018.06 1017.66 1017.26 1016.78 1016.30 1015.82 1015.46 1015.06 1014.58 1014.18 1013.86
1024.06 1024.06 1023.98 1023.94 1023.86 1023.78 1023.66 1023.50 1023.34 1023.14 1023.02 1022.90 1022.74 1022.50 1022.26 1022.06 1021.78 1021.58 1021.38 1021.22 1020.98 1020.82 1020.58 1020.02 1019.58 1019.26 1019.06 1018.82 1018.50 1018.22 1018.02 1017.58 1017.18 1016.62 1016.10 1015.58 1015.06 1014.70 1014.34 1013.98 1013.54 1013.22
1023.62 1023.66 1023.66 1023.58 1023.62 1023.54 1023.38 1023.26 1023.06 1022.86 1022.74 1022.54 1022.42 1022.10 1021.82 1021.58 1021.34 1021.10 1020.90 1020.74 1020.54 1020.26 1020.06 1019.58 1018.98 1018.66 1018.46 1018.18 1017.98 1017.66 1017.46 1017.02 1016.58 1016.10 1015.42 1014.98 1014.26 1013.86 1013.58 1013.22 1012.82 1012.50
1023.30 1023.34 1023.38 1023.38 1023.34 1023.22 1023.10 1022.90 1022.70 1022.50 1022.30 1022.22 1022.06 1021.82 1021.46 1021.14 1020.94 1020.70 1020.30 1020.10 1019.94 1019.66 1019.34 1019.14 1018.62 1018.18 1017.90 1017.62 1017.34 1017.02 1016.82 1016.42 1016.02 1015.50 1014.94 1014.38 1013.82 1013.10 1012.70 1012.42 1012.06 1011.78
1023.10 1023.14 1023.10 1023.10 1023.02 1022.82 1022.70 1022.50 1022.34 1022.18 1022.02 1021.82 1021.58 1021.42 1021.06 1020.78 1020.50 1020.26 1019.94 1019.58 1019.42 1019.18 1018.94 1018.66 1018.30 1017.78 1017.46 1017.02 1016.74 1016.38 1016.14 1015.82 1015.34 1014.94 1014.34 1013.82 1013.30 1012.70 1012.10 1011.46 1011.34 1011.02
Wind_Speed
11 11 11 11 10 9 10 10 10 10 10 10 10 11 11 10 11 11 11 13 13 12 13 13 14 15 14 14 14 13 13 11 9 9 10 11 11 15 14 13 12 11
12 11 10 9 9 10 10 10 10 9 9 9 9 9 9 11 12 11 11 12 12 13 14 13 13 14 15 13 14 14 13 13 14 10 9 10 10 10 11 14 14 13
11 11 11 12 11 12 11 10 10 10 10 10 10 10 10 10 11 11 11 12 11 11 12 13 14 14 14 13 14 13 13 15 15 16 16 13 10 10 11 11 10 12
10 9 9 10 9 10 9 9 10 9 10 10 12 11 10 10 11 14 13 14 14 13 12 13 13 13 14 14 14 12 13 12 11 13 13 13 13 11 10 9 9 9
9 8 8 8 8 8 8 9 10 9 9 10 11 11 11 13 13 14 13 14 14 14 14 14 14 14 14 13 13 12 13 12 13 13 13 13 13 14 13 10 10 11
7 7 7 7 7 7 8 9 10 10 10 10 11 10 11 12 12 12 13 15 14 14 15 14 15 14 14 14 13 11 12 12 13 14 14 15 15 14 13 15 14 12
8 8 8 8 8 7 7 8 8 8 8 9 9 10 10 12 12 13 14 13 14 14 14 15 15 15 14 13 14 14 13 13 14 14 15 13 13 16 16 16 17 16
7 6 6 7 8 8 9 8 8 8 8 8 9 9 10 11 12 11 12 13 13 14 14 14 14 15 14 13 14 15 15 11 13 14 15 14 13 15 15 15 16 16
5 5 6 7 8 8 9 9 9 9 8 9 9 9 9 9 11 11 12 12 12 13 13 13 14 13 13 13 13 13 14 13 13 14 14 14 16 15 14 15 16 16
6 6 6 6 8 7 9 9 9 8 8 9 9 8 10 9 10 10 11 12 13 13 13 13 14 13 13 12 13 13 14 15 14 13 13 14 13 14 16 14 15 17
5 5 5 7 6 6 7 8 9 9 8 9 9 9 9 10 10 9 10 11 12 13 14 14 13 14 14 14 13 12 13 13 15 14 13 13 14 14 14 14 16 15
6 5 5 5 6 6 6 6 6 7 8 8 8 9 10 9 10 10 9 11 11 12 12 13 13 13 13 13 13 12 12 13 12 12 13 13 13 12 14 15 14 16
6 6 6 5 5 5 6 6 6 5 6 8 7 7 9 10 10 10 9 10 10 10 11 12 13 13 12 13 13 13 14 14 13 14 13 12 12 13 14 13 14 14
7 6 5 6 5 5 5 5 5 6 7 6 5 6 7 9 10 11 10 9 10 10 10 10 11 12 12 12 12 13 14 14 13 13 14 15 14 14 13 13 12 13
6 6 5 6 6 6 6 6 6 5 6 6 6 6 6 7 8 8 10 12 11 10 10 10 10 10 9 11 13 15 14 14 15 15 15 15 16 16 15 15 14 14
6 6 6 6 6 7 7 7 6 6 6 6 7 7 7 8 7 7 7 9 12 12 10 9 9 9 11 18 18 14 15 13 14 15 15 14 15 15 16 16 16 14
6 7 6 6 7 6 6 6 7 6 6 7 7 7 8 9 8 9 9 8 9 10 12 12 10 9 17 19 20 23 17 14 15 15 15 15 14 14 15 16 16 17
7 7 6 8 7 8 8 7 6 6 6 6 7 9 9 7 9 10 10 10 9 9 10 11 12 14 18 19 21 22 20 16 14 14 14 14 14 14 14 14 15 16
7 7 7 8 8 8 8 7 7 6 7 7 9 8 7 9 10 10 10 10 10 11 12 11 12 14 21 22 22 22 23 20 13 14 15 15 15 15 15 14 13 14
7 7 8 8 8 8 8 8 7 8 8 7 7 7 8 9 10 11 11 11 10 11 12 12 13 13 21 23 24 25 24 21 14 15 15 15 16 15 14 15 14 13
7 8 8 9 8 8 8 8 8 8 8 7 7 8 9 10 11 11 11 11 11 11 12 13 13 18 21 23 24 26 27 22 15 14 14 15 15 15 15 15 15 14
7 8 9 9 9 8 8 9 8 8 9 8 8 8 9 9 10 10 12 13 12 12 13 15 14 19 22 23 25 25 27 18 15 15 15 15 15 15 14 14 14 14
7 8 8 8 8 9 9 9 9 9 9 7 10 10 11 11 12 12 11 12 14 14 15 16 15 17 21 24 25 27 22 16 15 15 15 16 16 15 14 14 14 14
6 6 7 8 7 8 9 8 8 9 10 9 10 12 13 13 12 12 12 12 14 15 15 16 17 17 22 25 26 28 24 18 15 15 16 16 16 15 13 13 15 21
5 5 6 6 7 7 8 10 10 11 10 10 11 11 13 12 12 12 13 13 13 15 17 19 17 18 22 26 29 28 23 16 15 15 16 16 15 16 15 13 14 15
4 4 5 6 8 9 10 11 10 11 11 12 12 11 12 12 13 12 14 12 12 12 13 13 15 16 19 28 29 30 30 20 15 15 16 17 16 16 16 15 13 13
Wind_Direction
17 19 19 16 17 13 12 10 9 10 6 4 2 353 356 352 347 349 345 343 347 349 350 348 346 346 348 347 343 336 334 306 273 257 242 236 238 237 238 238 232 229
15 16 15 15 15 14 13 9 6 7 2 2 358 351 352 349 348 349 346 346 347 347 346 348 350 350 348 347 346 343 336 342 335 316 280 265 258 253 246 243 239 236
10 11 14 14 9 7 7 5 5 4 4 359 356 358 352 351 347 348 348 348 349 351 349 347 348 349 348 347 347 345 345 344 343 339 333 314 284 270 262 253 248 246
9 9 9 7 7 4 2 3 2 1 357 360 1 354 352 350 349 350 351 352 352 350 351 352 351 347 347 346 347 347 344 342 339 335 329 327 320 295 275 267 253 251
2 3 3 4 1 359 2 4 1 359 358 356 353 353 353 352 351 351 351 351 351 348 349 351 351 350 347 346 346 344 345 341 341 339 335 330 330 328 312 288 271 261
0 360 358 1 358 356 2 1 357 355 353 356 356 350 352 349 350 350 349 349 349 348 347 347 349 349 349 346 344 345 344 341 338 337 338 338 337 335 330 321 293 268
354 354 354 354 355 356 359 356 355 353 353 351 347 353 352 350 350 348 347 347 346 348 348 346 346 346 346 346 345 343 343 340 338 341 340 339 334 333 335 334 329 315
347 345 347 348 351 352 354 353 352 353 348 348 351 349 353 349 348 347 346 344 345 344 345 345 343 343 342 343 343 341 340 342 342 340 337 334 335 333 334 333 327 324
338 344 344 347 350 349 350 348 348 347 347 349 347 346 349 349 345 344 343 343 342 342 341 342 342 339 340 339 338 337 336 338 340 339 335 332 331 330 330 329 325 325
337 334 343 344 348 344 344 343 344 342 341 344 341 344 344 344 345 340 342 342 340 338 340 339 338 337 336 335 334 333 335 335 334 333 330 328 324 325 326 325 324 321
323 329 334 338 337 334 334 338 339 338 340 338 338 339 340 341 339 341 340 340 339 336 335 336 334 333 331 330 330 328 331 331 328 327 326 325 323 320 320 320 319 315
321 322 324 326 327 326 327 325 325 332 333 333 335 332 334 336 334 336 338 334 333 331 330 328 328 329 326 325 324 326 327 325 322 321 321 319 318 317 318 318 313 314
317 315 312 312 311 312 315 317 319 320 322 325 323 326 329 330 330 330 330 329 326 326 326 324 325 324 323 321 322 325 324 322 320 319 316 317 315 313 313 309 308 306
308 304 302 301 302 303 302 302 311 318 321 314 309 314 319 324 324 324 323 322 320 320 317 318 318 319 318 318 320 321 319 318 318 316 316 314 312 310 308 306 303 302
302 303 300 302 304 306 304 305 304 305 310 313 311 305 308 310 309 314 316 318 316 314 314 314 313 312 313 317 319 316 316 314 314 313 312 310 311 310 307 306 304 303
288 289 289 296 303 304 303 301 302 304 306 309 307 305 307 305 305 300 302 308 312 312 311 309 306 304 303 305 307 309 311 310 308 309 307 306 306 306 306 305 303 301
276 274 277 283 278 283 286 290 293 296 303 303 301 301 304 306 307 304 301 297 298 303 307 308 301 297 298 300 303 304 305 305 306 305 304 302 300 301 301 304 303 303
267 269 272 271 273 273 272 273 276 285 288 288 296 300 299 300 298 298 299 297 295 293 292 296 298 295 293 294 296 298 298 299 301 300 300 298 298 297 296 297 298 300
264 264 265 265 264 264 266 266 266 273 276 282 287 286 292 294 292 293 292 292 292 292 290 289 287 292 294 295 293 293 295 296 293 294 294 295 293 292 292 290 292 295
262 264 263 262 262 262 262 261 262 261 264 268 275 283 284 285 288 287 288 287 285 287 288 288 288 280 285 290 293 293 293 292 289 290 289 288 289 288 286 287 288 288
263 262 264 265 264 263 261 260 258 263 266 269 272 276 281 284 286 288 284 283 283 282 282 284 283 282 284 285 287 290 292 292 288 285 286 285 283 283 283 282 283 282
258 264 266 267 270 268 265 265 263 264 273 276 276 276 274 277 277 275 280 281 281 282 283 282 281 279 281 282 284 285 288 289 287 284 283 281 281 280 279 279 278 278
250 257 262 268 268 271 272 271 274 280 280 281 283 281 282 279 276 276 276 279 281 281 281 281 280 278 277 278 281 283 285 283 283 283 281 280 277 277 276 276 276 275
259 261 268 270 268 265 268 271 275 278 281 285 283 287 284 281 279 278 274 272 275 277 276 279 280 277 276 279 280 280 279 279 278 279 280 279 280 275 273 272 271 272
264 265 266 268 268 270 271 278 281 283 284 284 281 280 279 281 279 277 275 273 270 271 273 274 278 278 279 279 279 279 278 277 276 276 277 277 279 279 275 270 270 270
258 260 263 265 274 279 282 283 287 290 287 286 282 279 279 279 278 276 277 275 273 271 271 271 274 277 278 280 280 279 278 277 275 275 275 276 276 276 279 275 267 269